Starlink 1567

operational
NORAD ID: 46038 Int'l Des: 2020-055 Owner: SPXS Country: US Constellation: starlink
LEOCIRCULARSTARLINK_TYPE

Über Starlink 1567

Beschreibung wird geladen...

Live-Position

3D-Globus wird geladen...

Nächste Überflüge

Höhenverlauf

Altitude vs Time

uPlot chart will show altitude changes over time

Zweizeiliger Elementsatz

1 46038U 20055M 25304.30083450 .00008040 00000-0 55795-3 0 9996
2 46038 53.0578 347.4697 0001687 103.1738 256.9440 15.06406802289388
Epoch: 31. Okt. 2025 • Age: 5 hours

Aktueller Status

Höhe 547.4 km
Geschwindigkeit 7.59 km/s
Subsatellitenpunkt 20.83°N, 141.34°E
Startdatum 7. Aug. 2020
Alter 5.2 years
Typ internet

Technische Details

Klassifizierung Payload
Masse 260.00 kg
Trockenmasse 248.00 kg
Gesamtmasse 260.00 kg
Länge 0.20 m
Durchmesser 2.80 m
Spannweite 9.00 m
Form Box + pan
Hersteller SPXS
Bus-Typ Starlink
Phasenstatus In Orbit
Besitzer/Staat SPXS/US

Große Konstellationen

Loading constellations...